Content
SEND FEEDBACK

Daily
Averages
Monthly
Summary
United States of America

COLUMBIA, VIRGINIA


Home > North America > United States > Virginia
Elevation: 293 feet     Latitude: 37 42N     Longitude: 078 18W

WEATHER
 
SELECT A DAY
Number of Records: 87,723;   Date Range: 2/1/11 - 12/16/14
 
SHARE

PRINT THIS DATA

[ ← Previous Day ]
WEATHER ALMANAC - JULY 1, 2014
[ Next Day → ]
[ °C ]   °F
Weather ElementAverageHighLow
Temperature81.9 °F93.2 °F (3:35 pm)69.8 °F (4:55 am)
Dewpoint68.2 °F71.6 °F (10:15 am) (7:00 pm)
Humidity67.9 %100 % (5:35 am)44 % (3:35 pm)
Barometer29.90 in29.97 in (12:35 am)29.86 in (2:15 pm)
Wind Speed5.9 mph13.8 mph (12:35 pm)
Wind Gust19.6 mph (12:35 pm)
Weather ElementAverage
Visibility9.9 mi
Wind DirectionSSE (158.5 °)

Weather ElementTotal
Precipitation---
Cooling Degree Days16.5 (Base 65)
Growing Degree Days31.5 (Base 50)
Averaged from 68 records on July 1, 2014
WEATHER CONDITIONS BREAKOUT
WIND DIRECTION BREAKOUT
WEATHER BY HOUR - JULY 1, 2014
[ °C ]   °F
Local TimeTemperatureDewpointHumidityBarometerVisibilityWind DirectionWind SpeedGust SpeedPrecipitationEventsConditions
12:35 AM73.4 °F66.2 °F78 %29.97 in10.0 miSouth (170°)4.6 mphClear
12:55 AM73.4 °F66.2 °F78 %29.97 in10.0 miCalmClear
1:35 AM73.4 °F66.2 °F78 %29.97 in10.0 miCalmClear
1:55 AM73.4 °F66.2 °F78 %29.96 in10.0 miCalmClear
2:15 AM73.4 °F66.2 °F78 %29.95 in10.0 miCalmClear
2:35 AM71.6 °F66.2 °F83 %29.94 in10.0 miSouth (190°)3.5 mphClear
2:55 AM71.6 °F66.2 °F83 %29.93 in10.0 miSouth (170°)3.5 mphClear
3:15 AM71.6 °F66.2 °F83 %29.92 in10.0 miSouth (170°)3.5 mphClear
3:35 AM71.6 °F66.2 °F83 %29.92 in10.0 miSouth (180°)3.5 mphClear
3:55 AM71.6 °F68.0 °F88 %29.92 in10.0 miSouth (190°)3.5 mphClear
4:15 AM71.6 °F68.0 °F88 %29.92 in10.0 miSouth (190°)3.5 mphClear
4:35 AM71.6 °F68.0 °F88 %29.93 in10.0 miCalmClear
4:55 AM69.8 °F68.0 °F94 %29.94 in10.0 miCalmClear
5:15 AM69.8 °F68.0 °F94 %29.94 in10.0 miCalmClear
5:35 AM69.8 °F69.8 °F100 %29.94 in10.0 miCalmClear
5:55 AM69.8 °F68.0 °F94 %29.94 in10.0 miCalmClear
6:15 AM69.8 °F69.8 °F100 %29.95 in10.0 miCalmClear
6:35 AM69.8 °F68.0 °F94 %29.95 in10.0 miCalmMostly Cloudy
6:55 AM71.6 °F69.8 °F94 %29.95 in10.0 miCalmOvercast
7:35 AM73.4 °F69.8 °F88 %29.94 in10.0 miSSW (200°)3.5 mphOvercast
8:15 AM73.4 °F69.8 °F88 %29.94 in10.0 miSSW (200°)4.6 mphOvercast
8:35 AM73.4 °F66.2 °F78 %29.95 in10.0 miSSW (200°)5.8 mphMostly Cloudy
8:55 AM77.0 °F68.0 °F74 %29.95 in10.0 miSSW (200°)5.8 mphScattered Clouds
9:15 AM78.8 °F69.8 °F74 %29.95 in10.0 miSouth (190°)6.9 mphThunderstormClear
9:35 AM80.6 °F69.8 °F70 %29.95 in10.0 miSW (220°)6.9 mphClear
9:55 AM82.4 °F69.8 °F66 %29.95 in0.8 miSSW (210°)8.1 mphHaze
10:15 AM82.4 °F71.6 °F70 %29.94 in10.0 miSSW (210°)8.1 mphScattered Clouds
10:35 AM84.2 °F71.6 °F66 %29.94 in10.0 miSouth (190°)6.9 mphClear
10:55 AM84.2 °F71.6 °F66 %29.93 in10.0 miSouth (190°)8.1 mphScattered Clouds
11:15 AM87.8 °F71.6 °F58 %29.92 in10.0 miWSW (240°)6.9 mphScattered Clouds
11:35 AM87.8 °F71.6 °F58 %29.90 in10.0 miSouth (180°)11.5 mphClear
11:55 AM87.8 °F69.8 °F55 %29.91 in10.0 miSouth (190°)10.4 mphClear
12:15 PM87.8 °F69.8 °F55 %29.89 in10.0 miSouth (180°)11.5 mphClear
12:35 PM89.6 °F69.8 °F52 %29.88 in10.0 miSouth (190°)13.8 mph19.6 mphClear
12:55 PM89.6 °F69.8 °F52 %29.88 in10.0 miSSW (200°)13.8 mph17.3 mphClear
1:15 PM89.6 °F69.8 °F52 %29.87 in10.0 miSSW (210°)12.7 mphScattered Clouds
1:35 PM89.6 °F69.8 °F52 %29.88 in10.0 miSouth (190°)10.4 mphScattered Clouds
1:55 PM89.6 °F69.8 °F52 %29.87 in10.0 miSW (220°)9.2 mphMostly Cloudy
2:15 PM91.4 °F68.0 °F46 %29.86 in10.0 miSW (220°)9.2 mphScattered Clouds
2:35 PM91.4 °F68.0 °F46 %29.86 in10.0 miSSW (200°)5.8 mph11.5 mphScattered Clouds
2:50 PM91.4 °F69.8 °F49 %29.86 in10.0 miSSW (200°)9.2 mph17.3 mphScattered Clouds
3:20 PM91.4 °F0.0 °F29.86 inSW (220°)6.9 mph
3:35 PM93.2 °F68.0 °F44 %29.86 in10.0 miWSW (240°)8.1 mph
3:55 PM93.2 °F69.8 °F46 %29.86 in10.0 miSouth (190°)9.2 mphScattered Clouds
4:15 PM93.2 °F68.0 °F44 %29.87 in10.0 miSW (220°)8.1 mphScattered Clouds
4:35 PM91.4 °F68.0 °F46 %29.87 in10.0 miWSW (240°)6.9 mphMostly Cloudy
4:55 PM91.4 °F68.0 °F46 %29.86 in10.0 miSSW (200°)8.1 mphScattered Clouds
5:15 PM93.2 °F69.8 °F46 %29.86 in10.0 miSouth (190°)8.1 mphClear
5:35 PM93.2 °F69.8 °F46 %29.86 in10.0 miSSW (200°)10.4 mph16.1 mphScattered Clouds
5:55 PM91.4 °F68.0 °F46 %29.86 in10.0 miSouth (180°)11.5 mphScattered Clouds
6:15 PM91.4 °F69.8 °F49 %29.86 in10.0 miSSW (200°)6.9 mphScattered Clouds
6:35 PM91.4 °F69.8 °F49 %29.86 in10.0 miSouth (180°)10.4 mphScattered Clouds
6:55 PM89.6 °F69.8 °F52 %29.86 in10.0 miSouth (190°)8.1 mphScattered Clouds
7:15 PM89.6 °F69.8 °F52 %29.86 in10.0 miSouth (190°)6.9 mphClear
7:35 PM87.8 °F69.8 °F55 %29.86 in10.0 miSSE (160°)8.1 mphClear
7:55 PM87.8 °F71.6 °F58 %29.86 in10.0 miSouth (170°)5.8 mphClear
8:15 PM86.0 °F71.6 °F62 %29.86 in10.0 miSouth (170°)4.6 mphClear
8:35 PM84.2 °F71.6 °F66 %29.86 in10.0 miSSE (160°)3.5 mphClear
8:55 PM82.4 °F71.6 °F70 %29.86 in10.0 miSSE (160°)5.8 mphClear
9:15 PM82.4 °F71.6 °F70 %29.86 in10.0 miSouth (170°)6.9 mphClear
9:35 PM82.4 °F71.6 °F70 %29.86 in10.0 miSouth (170°)4.6 mphClear
9:55 PM80.6 °F71.6 °F74 %29.87 in10.0 miSouth (170°)6.9 mphClear
10:15 PM82.4 °F71.6 °F70 %29.87 in10.0 miSouth (170°)5.8 mphClear
10:35 PM80.6 °F69.8 °F70 %29.87 in10.0 miSouth (190°)5.8 mphClear
10:55 PM78.8 °F69.8 °F74 %29.88 in10.0 miSouth (180°)5.8 mphClear
11:15 PM78.8 °F69.8 °F74 %29.89 in10.0 miSSW (200°)3.5 mphClear
11:35 PM78.8 °F69.8 °F74 %29.88 in10.0 miSSW (200°)3.5 mphClear
11:55 PM78.8 °F69.8 °F74 %29.88 in10.0 miSouth (180°)3.5 mphClear
Hourly data recorded from KFVX, located miles away from Columbia, Virginia







STORIES FROM OUR PARTNERS